VIZARD-METEO (RS38S)

Last updated on Sun Jun 21 2026 00:03:20 GMT+0000 (Coordinated Universal Time)

1 57189U 23091Z 26171.46992765 .00014554 00000+0 41535-3 0 9999 2 57189 97.5086 241.0213 0008064 68.0251 292.1849 15.36113853165193
UTC large
Height (km)
Speed (km/s)
/
Latitude / Longitude
Inclination (degrees)
Orbital Period (minutes)
Azimuth
Elevation
Range (km)
Doppler Factor

Next 0 passes for location: London (51.5072 / 0.1276)

No passes found over London.
VIZARD-METEO (RS38S)